www.pogodaiklimat.ru

Погода и климат >> Архив погоды >> Италия >> Латина


ПОГОДА в Латине

  • Прогноз погоды в Латине
  • Монитор погоды в Латине

АРХИВ ПОГОДЫ в Латине

Время (UTC), дата Ветер
(напр.,м/с)
 
Видим.   Явления Облачность Т
(С)
Тd
(С)
f
(%)
Тe
(С)
Тes
(С)
Комфортность P
(гПа)
Po
(гПа)
Тmin
(С)
Tmax
(С)
R
(мм)
R24
(мм)
S
(см)
15 16.05 З 6 25 км 5/5 750 м
[Cu Sc]
+19.4 +7.2 45 +20 +22 1009.3 1006.2
18 16.05 ЮЗ 3 25 км 4/0 1500 м
[Ac trans]
+17.0 +7.6 54 +17 +17 1010.2 1007.1 +21.0
06 17.05 З 1 20 км 3/0
[Ac trans]
+12.6 +10.0 84 +13 +17 1010.2 1007.0 +8.0
09 17.05 ЮВ 5 20 км 3/3 540 м
[Cu med, cong]
+19.4 +12.7 65 +21 +27 комфорт 1010.1 1007.0
12 17.05 Ю 6 20 км 4/3 600 м
[Cu med, cong Cs]
+20.6 +11.5 56 +22 +28 комфорт 1009.7 1006.7
15 17.05 ЮВ 6 25 км 6/3 600 м
[Cu med, cong Cs]
+20.8 +10.6 52 +22 +24 комфорт 1008.6 1005.6
18 17.05 ЮВ 4 20 км 10/0 2000 м
[Ac trans Cs]
+17.2 +9.1 59 +17 +17 1008.0 1004.9 +21.6
06 20.05 СВ 1 30 км в посл. час дождь 4/4 700 м
[Cu Sc]
+13.2 +10.7 85 +13 +16 1009.0 1005.9 +10.4 0.4
09 20.05 Ю 5 30 км в посл. час гроза {дождь} 5/5 600 м
[Cb cap]
+18.8 +11.1 61 +19 +24 1009.6 1006.5
12 20.05 СВ 4 16 км слаб. дождь {гроза} 9/6 600 м
[Cb cap As op]
+12.8 +9.4 80 +11 +13 1011.3 1008.2 2
15 20.05 ЮВ 3 30 км {дождь} 6/6 600 м
[Cu med, cong]
+18.6 +8.3 51 +19 +22 1011.2 1008.1
18 20.05 Ю 3 30 км {дождь} 3/3 600 м
[Cu med, cong]
+17.0 +9.9 63 +17 +17 1011.2 1008.1 +20.0 2
06 21.05 В 2 10 км в посл. час дождь 10/10 450 м
[Cu Sc]
+14.0 +11.7 86 +14 +14 1012.7 1009.6 +13.2 16
09 21.05 СВ 1 12 км 10/10 450 м
[Cu Sc]
+16.8 +14.4 86 +18 +18 1014.2 1011.1
12 21.05 ЮЗ 3 20 км 8/8 600 м
[Cu Sc]
+18.0 +14.1 78 +18 +21 1015.7 1012.6
15 21.05 ЮВ 2 25 км 6/6 600 м
[Cu Sc]
+20.0 +11.8 59 +22 +26 комфорт 1015.3 1012.2
18 21.05 Ю 2 25 км 6/6 600 м
[Cu Sc]
+17.2 +12.7 75 +18 +18 1015.4 1012.2 +21.0
06 22.05 СВ 2 15 км 3/3 540 м
[Cu hum]
+16.0 +13.3 84 +16 +19 1016.6 1013.5 +10.2
09 22.05 ЮВ 3 20 км 5/5 540 м
[Cu med, cong]
+20.0 +13.5 66 +22 +29 комфорт 1016.6 1013.5
12 22.05 Ю 5 25 км 4/4 600 м
[Cu med, cong]
+20.8 +14.2 66 +24 +30 комфорт 1016.6 1013.5
15 22.05 ЮЗ 4 25 км 3/3 600 м
[Cu med, cong]
+20.8 +14.0 65 +24 +27 комфорт 1016.1 1013.0
18 22.05 З 4 25 км 1/1 600 м
[Cu med, cong]
+19.0 +10.0 56 +20 +20 1015.9 1012.8 +21.4
06 23.05 СВ 2 30 км 3/0
[Ac trans Ci fib]
+13.2 +10.2 82 +13 +16 1016.6 1013.5 +10.0
09 23.05 Ю 2 30 км 3/3 600 м
[Cu med, cong]
+20.4 +13.8 66 +23 +34 комфорт 1016.9 1013.8

 

Местоположение метеостанции Латина (Италия): широта 41.55 долгота 12.90 высота над уровнем моря 25 м.

В архиве по умолчанию представлена погода в Латине за последнюю неделю. Архивные данные за месяц целиком и за предыдущие месяцы, начиная с января 2011 года, Вы можете получить, выбрав интересующий диапазон дат из раскрывающегося списка и нажав кнопку "Ввод!".


*Определитесь, кто Вы:
робот инопланетянин человек

Внимание! Время в таблицах - всемирное. Для получения местного времени необходимо прибавить поправку, которая равна 1 ч.

Смотрите также архив погоды в соседних городах и на ближайших метеорологических станциях:

Погода во Фрозиноне (Италия) (34 км)
Погода в Торре-Олеволе (Италия) (38 км)
Погода в Пратика-ди-Маре (Италия) (39 км)
Погода в Гуидония-Монтечельо (Италия) (52 км)
Погода в Риме (Италия) (62 км)
Погода на Понце (Италия) (70 км)
Погода в Фучино (Италия) (76 км)
Погода в Винья-ди-Валле (Италия) (82 км)
Погода на Монте Терминилло (Италия) (103 км)
Погода в Чивитавеккье (Италия) (104 км)

Пояснения к столбцам:

Ветер - указаны скорость ветра в м/с - средняя за 10 мин, порывы в срок и между сроками (в фигурных скобках) и направление, откуда дует ветер: С - северный, СВ - северо-восточный, В - восточный, ЮВ - юго-восточный, Ю - южный, ЮЗ - юго-западный, З - западный, СЗ - северо-западный.
Видимость - горизонтальная дальность видимости в метрах или километрах. При видимости от 1 до 10 км при отсутствии осадков обычно наблюдается дымка, при ухудшении видимости до 1 км и менее - туман. В сухую погоду видимость может ухудшаться дымом, пылью или мглою.
Явления - указаны атмосферные явления, наблюдавшиеся в срок или в последний час перед сроком; фигурными скобками обозначены явления, наблюдавшиеся между сроками (за 1-3 часа до срока); квадратными скобками обозначены град или гололедные отложения с указанием их диаметра в мм.
Облачность - указаны через наклонную черту общая и нижняя облачность в баллах и высота нижней границы облаков в метрах; квадратными скобками обозначены формы облаков: Ci - перистые, Cs - перисто-слоистые, Cc - перисто-кучевые, Ac - высококучевые, As - высокослоистые, Sc - слоисто-кучевые, Ns - слоисто-дождевые, Cu - кучевые, Cb - кучево-дождевые. Подробнее классификацию облаков см. в Атласе облаков (PDF).
T - Температура воздуха - температура, измеренная на высоте 2 м над землей.
Td - Температура точки росы - температура, при понижении до которой содержащийся в воздухе водяной пар достигнет насыщения.
f - Относительная влажность воздуха - влажноcть воздуха, измеренная на высоте 2 м над землей.
Te - Эффективная температура - температура, которую ощущает одетый по сезону человек в тени. Характеристика душности погоды. При расчете учитывается влияние влажности воздуха и скорости ветра на теплоощущения человека.
Tes - Эффективная температура на солнце - температура, которую ощущает человек, с поправкой на солнечный нагрев. Характеристика знойности погоды. Зависит от высоты солнца над горизонтом, облачности и скорости ветра. Ночью, в пасмурную погоду, а также при ветре 12 м/с и более поправка равна нулю.
P - Атмосферное давление - приведенное к уровню моря атмосферное давление.
Po - Атмосферное давление - измеренное на уровне метеостанции атмосферное давление.
Tmin - Минимальная температура - минимум температуры воздуха на высоте 2 м над землей.
Tmax - Максимальная температура - максимум температуры воздуха на высоте 2 м над землей.
R - Количество осадков - Количество выпавших осадков за период времени, мм. При наведении курсора мыши на число - период времени, за который выпало указанное количество осадков.
R24 - Количество осадков - Количество выпавших осадков за 24 часа, мм.
S - Снежный покров - Высота снежного покрова, см. При наведении курсора мыши на число - состояние снежного покрова и степень покрытия местности в баллах.